Карточка аэропорта UNWW

Внимание!
Информация на этой странице в стадии наполнения.
Если вы не увидели какой-то информации, или заметили неточность - пожалуйста сообщите нам!
Спасибо!
Команда RU-STAFF
Название аэропортаСпиченково
Название аэропорта (англ.)Spichenkovo
Превышение1023 ft. (311.8 m.)
Координаты53°48.714', 86°52.704'
Высота перехода800m
Эшелон переходаFL050
Коды ответчика5270-5277
Зона ОрВДНовосибирск РПИ (UNNT)
Данные METARUNWW 221100Z 19002MPS 9999 BKN023CB 14/11 Q1016 R19/250250 NOSIG RMK QFE735
Проноз погоды (TAF)UNWW 220800Z 2209/2309 19005G10MPS 8000 BKN020CB TX18/2209Z TN09/2222Z TEMPO 2209/2216 24009G20MPS -TSRA BKN011CB BECMG 2216/2217 BKN040CB BECMG 2300/2304 23005G10MPS TEMPO 2303/2309 -TSRA BKN016CB
NOTAMshow/hide NOTAM
AWOS   TABLE

Информация о ВПП

ВПП Длина ВПП (м.) Покрытие Курс ВПП Частота ILS
192679Цементобетон194111.1
012679Цементобетон14 

Диспетчерские позиции

Позывной Наименование органа УВД Частота
UNWW_APPНовокузнецк-Подход118.6
UNWW_TWRНовокузнецк-Старт121.2



Спутниковое изображение